NV6B Weather Reports


time (UTC)temp
F
wind
direction
speed
knots
gust
knots
rain 1hr
in
rain 24hr
in
rain mn
in
humidity
%
barometer
mb
20260505184556 73 260 4.3 4.3 0.00 0.00 0.00 37 1004.9
20260505183556 73 303 1.7 3.5 0.00 0.00 0.00 37 1005.0
20260505182556 72 301 2.6 5.2 0.00 0.00 0.00 41 1005.1
20260505181556 73 231 0.9 6.1 0.00 0.00 0.00 38 1005.2
20260505180555 72 278 2.6 3.5 0.00 0.00 0.00 40 1005.3
20260505175555 73 247 1.7 7.0 0.00 0.00 0.00 38 1005.3
20260505174555 73 103 0.9 5.2 0.00 0.00 0.00 39 1005.2
20260505173555 71 186 3.5 4.3 0.00 0.00 0.00 41 1005.3
20260505172555 71 154 2.6 7.0 0.00 0.00 0.00 40 1005.3
20260505171555 70 147 4.3 7.8 0.00 0.00 0.00 42 1005.3
20260505170615 70 224 2.6 6.1 0.00 0.00 0.00 42 1005.2
20260505165555 69 231 2.6 7.0 0.00 0.00 0.00 41 1005.1
20260505164615 69 189 2.6 8.7 0.00 0.00 0.00 42 1005.2
20260505163555 68 202 1.7 7.0 0.00 0.00 0.00 44 1005.1
20260505162554 68 162 3.5 8.7 0.00 0.00 0.00 43 1005.1
20260505161554 67 166 3.5 8.7 0.00 0.00 0.00 45 1005.1
20260505160554 67 146 1.7 8.7 0.00 0.00 0.00 44 1004.9
20260505152554 66 162 2.6 11.3 0.00 0.00 0.00 47 1004.8
20260505121552 53 135 1.7 4.3 0.00 0.00 0.00 70 1002.1
20260505120552 54 303 0.0 0.0 0.00 0.00 0.00 67 1001.8
20260505115552 54 303 0.9 1.7 0.00 0.00 0.00 66 1001.6
20260505114552 55 303 0.9 1.7 0.00 0.00 0.00 66 1001.6
20260505113552 55 303 0.0 1.7 0.00 0.00 0.00 64 1001.4
20260505112551 56 303 1.7 2.6 0.00 0.00 0.00 63 1001.4
20260505111552 57 303 0.0 1.7 0.00 0.00 0.00 61 1001.3
20260505110551 58 303 0.9 1.7 0.00 0.00 0.00 60 1001.2
20260505041548 70 307 2.6 7.0 0.00 0.00 0.00 45 998.6
20260505014546 80 293 2.6 9.6 0.00 0.00 0.00 33 997.5
20260505013546 80 286 4.3 9.6 0.00 0.00 0.00 33 997.6
20260505012546 80 294 3.5 8.7 0.00 0.00 0.00 32 997.7
20260505011546 80 356 3.5 8.7 0.00 0.00 0.00 32 997.8
20260505010545 81 359 4.3 8.7 0.00 0.00 0.00 32 997.8
20260505005545 81 320 4.3 12.2 0.00 0.00 0.00 31 997.9
20260505004545 81 329 2.6 12.2 0.00 0.00 0.00 30 998.0
20260505003545 82 334 6.1 10.4 0.00 0.00 0.00 30 998.1
20260505002545 82 10 4.3 10.4 0.00 0.00 0.00 29 998.2
20260505001545 83 280 2.6 9.6 0.00 0.00 0.00 29 998.2
20260505000545 84 264 2.6 9.6 0.00 0.00 0.00 27 998.2
20260504235545 84 339 6.1 8.7 0.00 0.00 0.00 27 998.3
20260504234545 84 312 2.6 11.3 0.00 0.00 0.00 27 998.5
20260504233545 84 320 9.6 9.6 0.00 0.00 0.00 27 998.6
20260504232545 84 329 4.3 11.3 0.00 0.00 0.00 29 998.6
20260504231544 84 277 3.5 11.3 0.00 0.00 0.00 27 998.7
20260504201543 80 329 6.1 7.8 0.00 0.00 0.00 33 1001.1
20260504200543 80 283 2.6 7.8 0.00 0.00 0.00 36 1001.2
20260504195543 79 334 3.5 9.6 0.00 0.00 0.00 32 1001.4
20260504194543 80 314 4.3 8.7 0.00 0.00 0.00 37 1001.4